Weather History for Dayton, OH

Change the Weather History Date:

Monday, February 17, 2014

  Actual Average Record
Temperature  
Mean Temperature 24 °F 31 °F  
Max Temperature 35 °F 39 °F 70 °F (1911)
Min Temperature 12 °F 23 °F -11 °F (1979)
Degree Days  
Heating Degree Days 41 34  
Month to date heating degree days 768 601  
Since 1 July heating degree days 4234 3924  
Cooling Degree Days 0 0  
Month to date cooling degree days 0 0  
Year to date cooling degree days 0 0  
Moisture  
Dew Point 22 °F    
Average Humidity 78    
Maximum Humidity 88    
Minimum Humidity 68    
Precipitation  
Precipitation 0.38 in 0.08 in 0.95 in (1910)
Month to date precipitation 1.58 1.36  
Year to date precipitation 4.42 4.07  
Snow  
Snow 0.10 in 0.20 in 10.50 in (1910)
Month to date snowfall 9.4 3.7  
Since 1 July snowfall 45.3 17.1  
Snow Depth 6.00 in    
Sea Level Pressure  
Sea Level Pressure 29.96 in    
Wind  
Wind Speed 18 mph (SSE)    
Max Wind Speed 37 mph    
Max Gust Speed 46 mph    
Visibility 5 miles    
Events Rain , Snow    
T = Trace of Precipitation, MM = Missing Value Source: NWS Daily Summary

Daily Weather History Graph

Daily Weather History Graph

Search for Another Location

Airport:

Trip Planner

Search our weather history database for the weather conditions in past years. The results will help you decide how hot, cold, wet, or windy it might be!

Date:

Astronomy

Feb. 17, 2014 Rise Set
Actual Time 7:26 AM EST 6:15 PM EST
Civil Twilight 6:59 AM EST 6:42 PM EST
Nautical Twilight 6:27 AM EST 7:14 PM EST
Astronomical Twilight 5:56 AM EST 7:45 PM EST
Moon 9:08 PM EST (2/17) 8:27 AM EST (2/17)
Length of Visible Light 11h 43m
Length of Day
10h 48m
Waning Gibbous, 93% of the Moon is Illuminated
Feb 17
Waning Gibbous
Feb 22
Last Quarter
Mar 1
New
Mar 8
First Quarter
Mar 16
Full

Hourly Weather History & Observations

Time (EST) Temp. Windchill Dew Point Humidity Pressure Visibility Wind Dir Wind Speed Gust Speed Precip Events Conditions
12:41 AM 19.4 °F 9.5 °F 15.8 °F 86% 30.29 in 5.0 mi East 8.1 mph - N/A   Scattered Clouds
12:56 AM 18.0 °F 7.7 °F 14.0 °F 84% 30.34 in 5.0 mi ESE 8.1 mph - N/A   Partly Cloudy
1:56 AM 17.1 °F 6.6 °F 12.0 °F 81% 30.34 in 6.0 mi ESE 8.1 mph - N/A   Haze
2:56 AM 16.0 °F 8.8 °F 10.9 °F 81% 30.36 in 6.0 mi ESE 4.6 mph - N/A   Haze
3:56 AM 14.0 °F 2.0 °F 10.0 °F 84% 30.33 in 7.0 mi ESE 9.2 mph - N/A   Partly Cloudy
4:56 AM 15.1 °F 2.5 °F 10.0 °F 80% 30.32 in 7.0 mi ESE 10.4 mph - N/A   Partly Cloudy
5:56 AM 12.9 °F 2.6 °F 9.0 °F 84% 30.33 in 5.0 mi ESE 6.9 mph - N/A   Scattered Clouds
6:56 AM 14.0 °F 2.0 °F 10.0 °F 84% 30.33 in 7.0 mi East 9.2 mph - N/A   Mostly Cloudy
7:56 AM 15.1 °F 0.5 °F 10.0 °F 80% 30.31 in 5.0 mi ESE 13.8 mph - N/A   Haze
8:56 AM 18.0 °F 2.6 °F 12.0 °F 78% 30.30 in 5.0 mi ESE 17.3 mph - N/A   Haze
9:56 AM 19.9 °F 5.2 °F 12.9 °F 74% 30.28 in 7.0 mi SE 17.3 mph - N/A   Overcast
10:56 AM 21.0 °F 6.6 °F 14.0 °F 74% 30.22 in 7.0 mi ESE 17.3 mph - N/A   Overcast
11:56 AM 23.0 °F 8.7 °F 16.0 °F 74% 30.17 in 7.0 mi ESE 18.4 mph - N/A   Overcast
12:56 PM 24.1 °F 9.8 °F 17.1 °F 75% 30.10 in 7.0 mi SE 19.6 mph - N/A   Overcast
1:56 PM 26.1 °F 11.6 °F 18.0 °F 71% 30.00 in 6.0 mi ESE 21.9 mph - N/A   Haze
2:56 PM 28.0 °F 14.9 °F 19.0 °F 69% 29.94 in 9.0 mi SE 19.6 mph - N/A   Mostly Cloudy
3:56 PM 28.9 °F 14.0 °F 19.9 °F 69% 29.83 in 8.0 mi ESE 27.6 mph 32.2 mph N/A   Overcast
4:23 PM 30.2 °F 17.1 °F 21.2 °F 69% 29.78 in 5.0 mi ESE 21.9 mph 29.9 mph 0.00 in Rain Light Freezing Rain
4:46 PM 30.2 °F 16.8 °F 24.8 °F 80% 29.75 in 2.5 mi SE 23.0 mph 28.8 mph 0.11 in Rain Light Freezing Rain
4:56 PM 30.0 °F 16.0 °F 24.1 °F 79% 29.78 in 2.0 mi SE 25.3 mph 32.2 mph 0.14 in Rain Light Freezing Rain
5:05 PM 30.2 °F 15.9 °F 26.6 °F 86% 29.73 in 1.5 mi SE 26.5 mph 32.2 mph 0.08 in Rain Light Freezing Rain
5:26 PM 30.2 °F 16.2 °F 26.6 °F 86% 29.72 in 2.5 mi SE 25.3 mph 34.5 mph 0.13 in Rain Light Freezing Rain
5:56 PM 32.0 °F 20.8 °F 28.0 °F 85% 29.77 in 2.5 mi SE 17.3 mph - 0.16 in Rain Light Freezing Rain
6:26 PM 32.0 °F 22.1 °F 28.4 °F 87% 29.74 in 4.0 mi SSE 13.8 mph 21.9 mph 0.03 in Rain Light Freezing Rain
6:28 PM 32.0 °F 22.1 °F 28.4 °F 87% 29.74 in 3.0 mi SSE 13.8 mph - 0.04 in Rain Light Freezing Rain
6:39 PM 33.8 °F 24.8 °F 30.2 °F 87% 29.74 in 4.0 mi SSE 12.7 mph - 0.05 in Rain Light Freezing Rain
6:42 PM 33.8 °F 25.8 °F 30.2 °F 87% 29.74 in 3.0 mi South 10.4 mph - 0.06 in Rain , Snow Light Freezing Rain
6:45 PM 33.8 °F 25.3 °F 30.2 °F 87% 29.73 in 2.0 mi South 11.5 mph - 0.06 in Rain , Snow Light Freezing Rain
6:48 PM 33.8 °F 24.8 °F 30.2 °F 87% 29.72 in 1.0 mi SSE 12.7 mph - 0.07 in Rain , Snow Light Freezing Rain
6:56 PM 32.0 °F 20.1 °F 30.0 °F 92% 29.70 in 1.0 mi SE 19.6 mph - 0.07 in Rain , Snow Light Freezing Rain
7:01 PM 32.0 °F 20.8 °F 30.2 °F 93% 29.67 in 1.2 mi SE 17.3 mph 25.3 mph 0.00 in Snow Light Snow
7:09 PM 33.8 °F 25.3 °F 30.2 °F 87% 29.72 in 1.0 mi South 11.5 mph 23.0 mph 0.00 in Snow Light Snow
7:34 PM 33.8 °F 25.8 °F 32.0 °F 93% 29.70 in 2.0 mi South 10.4 mph - 0.01 in   Overcast
7:56 PM 34.0 °F 24.2 °F 32.0 °F 92% 29.74 in 2.0 mi South 15.0 mph - 0.01 in   Light Drizzle
8:49 PM 35.6 °F 22.1 °F 32.0 °F 87% 29.74 in 5.0 mi West 32.2 mph 38.0 mph 0.00 in   Overcast
8:56 PM 35.1 °F 20.8 °F 32.0 °F 89% 29.79 in 5.0 mi WSW 35.7 mph 46.0 mph 0.00 in   Overcast
9:31 PM 35.6 °F 21.5 °F 30.2 °F 81% 29.76 in 9.0 mi WSW 35.7 mph 42.6 mph N/A   Overcast
9:56 PM 35.1 °F 22.2 °F 30.0 °F 82% 29.82 in 9.0 mi WSW 27.6 mph 35.7 mph N/A   Overcast
10:13 PM 35.6 °F 22.3 °F 30.2 °F 81% 29.79 in 9.0 mi WSW 31.1 mph 36.8 mph N/A   Overcast
10:56 PM 35.1 °F 22.2 °F 30.0 °F 82% 29.84 in 9.0 mi WSW 27.6 mph 36.8 mph N/A   Overcast
11:21 PM 35.6 °F 22.5 °F 30.2 °F 81% 29.81 in 7.0 mi WSW 29.9 mph 38.0 mph N/A   Overcast
11:48 PM 35.6 °F 23.2 °F 30.2 °F 81% 29.82 in 8.0 mi WSW 26.5 mph 36.8 mph N/A   Overcast
11:56 PM 35.1 °F 22.7 °F 30.9 °F 85% 29.85 in 8.0 mi WSW 25.3 mph 33.4 mph N/A   Overcast